Regional Weather Roundup
Issued by NWS Charleston, WV

Home | Current Version | Previous Version | Text Only | Print | Product List | Glossary Off
Versions: 1 2 3 4 5 6 7 8 9 10 11 12 13 14 15 16 17 18 19 20 21 22 23 24 25 26 27 28 29 30 31 32 33 34 35 36 37 38 39 40 41 42 43 44 45 46 47 48 49 50

000
ASUS41 KRLX 151910
RWRRLX
West Virginia Regional Weather Roundup
National Weather Service Charleston WV
300 PM EDT MON SEP 15 2014

Note: "fair" indicates few or no clouds below 12,000 feet with no
significant weather and/or obstructions to visibility.

WVZ003-152000-
Northern Panhandle of West Virginia

CITY           SKY/WX    TMP DP  RH WIND       PRES   REMARKS
WHEELING       PTSUNNY   66  47  50 S9        30.14F
$$

WVZ009-152000-
Northwest West Virginia

CITY           SKY/WX    TMP DP  RH WIND       PRES   REMARKS
PARKERSBURG    PTSUNNY   70  48  45 SE9       30.16F
$$

WVZ006-152000-
Western West Virginia

CITY           SKY/WX    TMP DP  RH WIND       PRES   REMARKS
HUNTINGTON     PTSUNNY   71  53  52 SW7       30.15F
$$

WVZ015-152000-
West Central West Virginia

CITY           SKY/WX    TMP DP  RH WIND       PRES   REMARKS
CHARLESTON     NOT AVBL
$$

WVZ031-152000-
North Central West Virginia

CITY           SKY/WX    TMP DP  RH WIND       PRES   REMARKS
CLARKSBURG     PTSUNNY   67  48  50 W6        30.17F
MORGANTOWN     MOSUNNY   71  48  43 VRB5      30.18F
$$

WVZ035-042-045-152000-
South Central West Virginia

CITY           SKY/WX    TMP DP  RH WIND       PRES   REMARKS
BECKLEY        PTSUNNY   69  57  65 W12       30.19F
BLUEFIELD      PTSUNNY   73  56  54 W10       30.20F
LEWISBURG      PTSUNNY   70  57  64 CALM      30.19F
$$

WVZ047-152000-
Northern Mountains of West Virginia

CITY           SKY/WX    TMP DP  RH WIND       PRES   REMARKS
ELKINS         MOSUNNY   71  52  50 NW7       30.17F
$$

WVZ052-152000-
Eastern Panhandle of West Virginia

CITY           SKY/WX    TMP DP  RH WIND       PRES   REMARKS
MARTINSBURG    SUNNY     71  48  43 CALM      30.16F
PETERSBURG     MOSUNNY   75  49  40 NE5       30.14F
$$



USA.gov is the U.S. government's official web portal to all federal, state and local government web resources and services.